DW0427 Durrow IE current weather conditions

sailwx.info

Wind from 270 at 4 knots gusting 10

Air temperature 16.1° C
Dewpoint 9.1° C

Last reported at 2019-Jun-20 16:09 UTC.
Time now 2019-Jun-20 17:10 UTC

Location: N 52°51' W 007°23'.
View on Google Maps.

See reports from other nearby stations

  
Tides and Currents Weather Stations Pressure Air Temp Water Temp Dewpoint Dewpoint Depression Visibility Wind Speed Wind Dir Waves Ship Positions
date/time (UTC)wind fromknots sea level pressurealtimeterstation pressurevisibilityair tempwater tempwave heightnotes
2019-Jun-20 16:09 270 4 gusting 10 16.1
2019-Jun-20 16:03 286 4 gusting 7 15.6
2019-Jun-20 15:59 289 4 gusting 7 15.0
2019-Jun-20 15:53 281 5 gusting 6 15.6
2019-Jun-20 15:49 285 5 gusting 8 15.6
2019-Jun-20 15:43 279 4 gusting 9 15.0
2019-Jun-20 15:39 269 4 gusting 9 14.4
2019-Jun-20 15:33 265 6 gusting 8 14.4
2019-Jun-20 15:29 270 6 gusting 10 14.4
2019-Jun-20 15:23 284 6 gusting 11 14.4
2019-Jun-20 15:19 289 6 gusting 11 14.4
2019-Jun-20 15:13 294 6 gusting 9 14.4
2019-Jun-20 15:09 301 6 gusting 12 15.0
2019-Jun-20 15:03 308 6 gusting 12 15.0
2019-Jun-20 14:59 310 6 gusting 12 15.0
2019-Jun-20 14:53 308 5 gusting 12 15.0
2019-Jun-20 14:49 315 5 gusting 12 15.0
2019-Jun-20 14:43 323 5 gusting 9 15.0
2019-Jun-20 14:39 318 6 gusting 13 15.0
2019-Jun-20 14:33 298 6 gusting 13 14.4
2019-Jun-20 14:29 287 6 gusting 9 14.4
2019-Jun-20 14:23 287 5 gusting 11 14.4
2019-Jun-20 14:19 290 4 gusting 11 14.4
2019-Jun-20 14:13 288 3 gusting 6 15.0
2019-Jun-20 14:09 275 4 gusting 6 15.0
2019-Jun-20 14:03 254 3 gusting 8 14.4
2019-Jun-20 13:59 253 3 gusting 8 13.9
2019-Jun-20 13:53 257 2 gusting 6 13.3
2019-Jun-20 13:49 260 2 gusting 5 12.8
2019-Jun-20 13:43 256 2 gusting 5 12.8
2019-Jun-20 13:39 241 2 gusting 4 12.2
2019-Jun-20 13:33 248 2 gusting 4 11.7
2019-Jun-20 13:29 266 4 gusting 5 11.7
2019-Jun-20 13:23 288 7 gusting 11 11.7
2019-Jun-20 13:19 299 8 gusting 17 11.7
2019-Jun-20 13:13 308 6 gusting 18 12.8
2019-Jun-20 13:09 305 4 gusting 18 13.3
2019-Jun-20 13:03 275 4 gusting 6 14.4
2019-Jun-20 12:59 268 4 gusting 7 15.0
2019-Jun-20 12:53 260 5 gusting 7 15.0
2019-Jun-20 12:49 270 5 gusting 8 14.4
2019-Jun-20 12:43 268 6 gusting 10 14.4
2019-Jun-20 12:39 253 6 gusting 11 14.4
2019-Jun-20 12:33 251 5 gusting 11 14.4
2019-Jun-20 12:29 257 4 gusting 11 14.4
2019-Jun-20 12:23 261 5 gusting 8 13.9
2019-Jun-20 12:19 251 6 gusting 8 13.3
2019-Jun-20 12:13 256 6 gusting 12 13.3
2019-Jun-20 12:09 266 6 gusting 12 13.3
2019-Jun-20 12:03 279 6 gusting 10 13.9
2019-Jun-20 11:59 287 6 gusting 9 13.9
2019-Jun-20 11:53 294 6 gusting 12 13.3
2019-Jun-20 11:49 294 5 gusting 12 13.3
2019-Jun-20 11:43 287 4 gusting 10 13.3
2019-Jun-20 11:39 285 4 gusting 7 12.8
2019-Jun-20 11:33 299 4 gusting 7 12.8
2019-Jun-20 11:29 304 4 gusting 7 12.2
2019-Jun-20 11:23 302 4 gusting 6 12.2
2019-Jun-20 11:19 304 5 gusting 6 12.2
2019-Jun-20 11:13 313 6 gusting 9 12.2
2019-Jun-20 11:09 319 6 gusting 9 12.2
2019-Jun-20 11:03 321 7 gusting 13 12.2
2019-Jun-20 10:59 324 7 gusting 13 12.8
2019-Jun-20 10:53 312 7 gusting 14 13.9
2019-Jun-20 10:49 301 6 gusting 14 14.4
2019-Jun-20 10:43 294 6 gusting 12 15.0
2019-Jun-20 10:39 281 6 gusting 10 15.0
2019-Jun-20 10:33 274 6 gusting 11 14.4
2019-Jun-20 10:29 281 6 gusting 11 14.4
2019-Jun-20 10:23 265 6 gusting 10 14.4
2019-Jun-20 10:19 255 6 gusting 10 14.4
2019-Jun-20 10:13 246 6 gusting 13 14.4
2019-Jun-20 10:09 246 6 gusting 13 13.9
2019-Jun-20 10:03 274 5 gusting 11 13.9
2019-Jun-20 09:59 296 4 gusting 9 13.9
2019-Jun-20 09:53 289 3 gusting 9 13.9
2019-Jun-20 09:49 283 3 gusting 7 13.3
2019-Jun-20 09:43 292 4 gusting 6 13.3
2019-Jun-20 09:39 300 4 gusting 6 12.8
2019-Jun-20 09:33 312 4 gusting 7 12.8
2019-Jun-20 09:29 310 4 gusting 7 12.2
2019-Jun-20 09:23 295 4 gusting 7 12.8
2019-Jun-20 09:19 285 4 gusting 7 12.8
2019-Jun-20 09:13 287 4 gusting 7 12.8
2019-Jun-20 09:09 301 5 gusting 8 12.8
2019-Jun-20 09:03 299 5 gusting 8 12.2
2019-Jun-20 08:59 288 6 gusting 8 12.2
2019-Jun-20 08:53 296 5 gusting 10 12.2
2019-Jun-20 08:49 299 6 gusting 10 12.2
2019-Jun-20 08:43 286 6 gusting 11 12.2
2019-Jun-20 08:39 280 5 gusting 11 12.2
2019-Jun-20 08:33 284 5 gusting 10 12.8
2019-Jun-20 08:29 287 6 gusting 10 12.8
2019-Jun-20 08:23 285 6 gusting 11 12.2
2019-Jun-20 08:19 280 6 gusting 11 12.2
2019-Jun-20 08:13 280 6 gusting 11 12.2
2019-Jun-20 08:09 284 5 gusting 11 12.2
2019-Jun-20 08:03 286 4 gusting 8 12.2
2019-Jun-20 07:59 284 4 gusting 7 11.7
2019-Jun-20 07:53 267 4 gusting 7 11.7
2019-Jun-20 07:49 276 5 gusting 8 11.1
2019-Jun-20 07:43 283 4 gusting 8 11.1
2019-Jun-20 07:39 273 4 gusting 9 11.1
2019-Jun-20 07:33 269 5 gusting 10 11.1
2019-Jun-20 07:29 280 6 gusting 10 11.1
2019-Jun-20 07:23 276 5 gusting 12 11.1
2019-Jun-20 07:19 263 5 gusting 12 11.1
2019-Jun-20 07:13 260 4 gusting 10 11.1
2019-Jun-20 07:09 265 4 gusting 10 11.1
2019-Jun-20 07:03 269 4 gusting 7 10.6
2019-Jun-20 06:59 270 5 gusting 7 10.6
2019-Jun-20 06:53 264 5 gusting 11 10.6
2019-Jun-20 06:49 266 4 gusting 11 10.6
2019-Jun-20 06:43 270 3 gusting 9 11.1
2019-Jun-20 06:39 268 4 gusting 8 10.6
2019-Jun-20 06:33 265 4 gusting 8 10.6
2019-Jun-20 06:29 261 4 gusting 8 10.6
2019-Jun-20 06:23 263 4 gusting 13 10.6
2019-Jun-20 06:19 265 5 gusting 13 10.6
2019-Jun-20 06:13 265 6 gusting 10 10.6
2019-Jun-20 06:09 268 6 gusting 11 10.6
2019-Jun-20 06:03 263 5 gusting 11 10.6
2019-Jun-20 05:59 257 5 gusting 10 10.0
2019-Jun-20 05:53 258 5 gusting 12 10.0
2019-Jun-20 05:49 261 4 gusting 12 9.4
2019-Jun-20 05:43 262 4 gusting 8 9.4
2019-Jun-20 05:39 262 4 gusting 9 9.4
2019-Jun-20 05:33 262 3 gusting 9 9.4
2019-Jun-20 05:29 260 3 gusting 9 9.4
2019-Jun-20 05:23 258 3 gusting 8 9.4
2019-Jun-20 05:19 261 3 gusting 8 9.4
2019-Jun-20 05:13 264 3 gusting 6 9.4
2019-Jun-20 05:09 270 3 gusting 6 9.4
2019-Jun-20 05:03 267 4 gusting 7 8.9
2019-Jun-20 04:59 259 4 gusting 7 8.9
2019-Jun-20 04:53 252 4 gusting 6 8.9
2019-Jun-20 04:49 249 3 gusting 6 8.9
2019-Jun-20 04:43 255 4 gusting 6 8.9
2019-Jun-20 04:39 258 3 gusting 7 8.9
2019-Jun-20 04:33 258 3 gusting 7 8.9
2019-Jun-20 04:29 264 3 gusting 7 8.3
2019-Jun-20 04:23 279 2 gusting 6 8.3
2019-Jun-20 04:19 283 2 gusting 6 8.3
2019-Jun-20 04:13 286 2 gusting 6 8.3
2019-Jun-20 04:09 290 2 gusting 4 8.3
2019-Jun-20 04:03 282 2 gusting 4 8.9
2019-Jun-20 03:59 268 2 gusting 5 8.9
2019-Jun-20 03:53 270 2 gusting 6 8.9
2019-Jun-20 03:49 275 3 gusting 6 8.9
2019-Jun-20 03:43 275 3 gusting 6 8.9
2019-Jun-20 03:39 278 3 gusting 5 8.9
2019-Jun-20 03:33 278 2 gusting 5 8.9
2019-Jun-20 03:29 276 2 gusting 5 8.9
2019-Jun-20 03:23 273 3 gusting 6 8.9
2019-Jun-20 03:19 272 3 gusting 6 8.9
2019-Jun-20 03:13 273 3 gusting 5 8.9
2019-Jun-20 03:09 270 3 gusting 6 8.9
2019-Jun-20 03:03 270 3 gusting 7 8.9
2019-Jun-20 02:59 270 3 gusting 7 9.4
2019-Jun-20 02:53 264 3 gusting 6 9.4
2019-Jun-20 02:49 262 3 gusting 6 9.4
2019-Jun-20 02:43 264 2 gusting 6 9.4
2019-Jun-20 02:39 266 3 gusting 6 9.4
2019-Jun-20 02:33 266 2 gusting 6 9.4
2019-Jun-20 02:29 265 2 gusting 6 9.4
2019-Jun-20 02:23 264 2 gusting 5 9.4
2019-Jun-20 02:19 263 2 gusting 5 9.4
2019-Jun-20 02:13 269 2 gusting 5 9.4
2019-Jun-20 02:09 273 2 gusting 5 9.4
2019-Jun-20 02:03 276 3 gusting 6 10.0
2019-Jun-20 01:59 277 3 gusting 6 10.0
2019-Jun-20 01:53 280 3 gusting 6 10.0
2019-Jun-20 01:49 280 3 gusting 6 10.0
2019-Jun-20 01:43 279 4 gusting 6 10.0
2019-Jun-20 01:39 281 4 gusting 7 10.0
2019-Jun-20 01:33 282 4 gusting 7 10.0
2019-Jun-20 01:29 280 4 gusting 9 10.0
2019-Jun-20 01:23 281 4 gusting 9 10.0
2019-Jun-20 01:19 279 3 gusting 7 10.0
2019-Jun-20 01:13 277 3 gusting 5 10.0
2019-Jun-20 01:09 276 3 gusting 7 10.0
2019-Jun-20 01:03 274 3 gusting 7 10.0
2019-Jun-20 00:59 275 3 gusting 6 10.0
2019-Jun-20 00:53 270 2 gusting 6 10.0
2019-Jun-20 00:49 266 2 gusting 6 10.0
2019-Jun-20 00:43 264 2 gusting 6 10.0
2019-Jun-20 00:39 264 2 gusting 6 10.0
2019-Jun-20 00:33 267 3 gusting 5 10.0
2019-Jun-20 00:29 266 3 gusting 6 10.0
2019-Jun-20 00:23 263 2 gusting 6 10.0
2019-Jun-20 00:19 262 2 gusting 6 10.0
2019-Jun-20 00:13 264 2 gusting 6 9.4
2019-Jun-20 00:09 265 2 gusting 6 9.4
2019-Jun-20 00:03 267 2 gusting 6 9.4
2019-Jun-19 23:59 269 2 gusting 5 9.4
2019-Jun-19 23:53 276 2 gusting 4 9.4
2019-Jun-19 23:49 281 2 gusting 4 9.4
2019-Jun-19 23:43 278 1 gusting 4 10.0
2019-Jun-19 23:39 270 1 gusting 4 10.0
2019-Jun-19 23:33 265 2 gusting 5 10.0
2019-Jun-19 23:29 269 3 gusting 5 10.0
2019-Jun-19 23:23 275 4 gusting 6 10.6
2019-Jun-19 23:19 274 4 gusting 8 10.6
2019-Jun-19 23:13 269 4 gusting 11 10.6
2019-Jun-19 23:09 263 4 gusting 11 10.6
2019-Jun-19 23:03 260 3 gusting 9 10.6
2019-Jun-19 22:59 265 3 gusting 7 10.6
2019-Jun-19 22:53 266 3 gusting 6 10.6
2019-Jun-19 22:49 264 3 gusting 9 10.6
2019-Jun-19 22:43 262 3 gusting 9 11.1
2019-Jun-19 22:39 270 4 gusting 9 11.1
2019-Jun-19 22:33 277 6 gusting 11 11.1
2019-Jun-19 22:29 277 6 gusting 11 11.7
2019-Jun-19 22:23 280 6 gusting 15 11.7
2019-Jun-19 22:19 282 6 gusting 15 11.7
2019-Jun-19 22:13 284 5 gusting 9 11.7
2019-Jun-19 22:09 284 4 gusting 9 11.1
2019-Jun-19 22:03 282 3 gusting 8 11.7
2019-Jun-19 21:59 278 3 gusting 8 11.7
2019-Jun-19 21:53 282 4 gusting 6 11.7
2019-Jun-19 21:49 288 5 gusting 6 11.7
2019-Jun-19 21:43 301 6 gusting 9 11.7
2019-Jun-19 21:39 302 6 gusting 10 11.7
2019-Jun-19 21:33 296 6 gusting 10 11.7
2019-Jun-19 21:29 293 6 gusting 9 12.2
2019-Jun-19 21:23 286 5 gusting 8 12.2
2019-Jun-19 21:19 284 5 gusting 8 12.2
2019-Jun-19 21:13 284 5 gusting 8 11.7
2019-Jun-19 21:09 284 6 gusting 8 11.7
2019-Jun-19 21:03 284 5 gusting 10 12.2
2019-Jun-19 20:59 286 5 gusting 10 12.2
2019-Jun-19 20:53 287 5 gusting 8 12.2
2019-Jun-19 20:49 285 5 gusting 8 12.2
2019-Jun-19 20:43 289 6 gusting 9 12.2
2019-Jun-19 20:39 292 6 gusting 11 12.2
2019-Jun-19 20:33 291 6 gusting 13 12.8
2019-Jun-19 20:29 291 6 gusting 13 12.8
2019-Jun-19 20:23 293 6 gusting 9 12.8
2019-Jun-19 20:19 293 6 gusting 9 12.8
2019-Jun-19 20:13 295 6 gusting 10 12.8
2019-Jun-19 20:09 299 6 gusting 10 12.8
2019-Jun-19 20:03 301 6 gusting 11 12.8
2019-Jun-19 19:59 302 6 gusting 11 12.8
2019-Jun-19 19:53 297 6 gusting 11 13.3
2019-Jun-19 19:49 291 5 gusting 11 13.3
2019-Jun-19 19:43 285 5 gusting 9 13.3
2019-Jun-19 19:39 286 5 gusting 9 13.3
2019-Jun-19 19:33 289 5 gusting 9 13.3
2019-Jun-19 19:29 291 5 gusting 9 13.3
2019-Jun-19 19:23 290 5 gusting 11 13.3
2019-Jun-19 19:19 289 5 gusting 11 13.3
2019-Jun-19 19:13 290 6 gusting 9 13.3
2019-Jun-19 19:09 292 6 gusting 11 13.9
2019-Jun-19 19:03 287 6 gusting 11 13.9
2019-Jun-19 18:59 284 5 gusting 9 13.9
2019-Jun-19 18:53 288 6 gusting 9 13.3
2019-Jun-19 18:49 290 6 gusting 11 13.3
2019-Jun-19 18:43 293 5 gusting 11 13.3
2019-Jun-19 18:39 295 5 gusting 10 13.3
2019-Jun-19 18:33 299 6 gusting 9 12.8
2019-Jun-19 18:29 302 6 gusting 11 12.8
2019-Jun-19 18:23 303 6 gusting 13 12.8
2019-Jun-19 18:19 307 5 gusting 13 13.3
2019-Jun-19 18:13 308 4 gusting 11 13.9
2019-Jun-19 18:09 299 5 gusting 6 13.9
2019-Jun-19 18:03 292 5 gusting 6 14.4
2019-Jun-19 17:59 290 5 gusting 8 14.4
2019-Jun-19 17:53 293 5 gusting 8 14.4
2019-Jun-19 17:49 299 5 gusting 8 15.0
2019-Jun-19 17:43 296 5 gusting 8 15.0
2019-Jun-19 17:39 282 5 gusting 8 14.4
2019-Jun-19 17:33 290 4 gusting 8 15.0
2019-Jun-19 17:29 304 4 gusting 8 14.4
2019-Jun-19 17:23 312 5 gusting 7 14.4
2019-Jun-19 17:19 310 5 gusting 7 13.9
2019-Jun-19 17:13 297 5 gusting 7 13.9
2019-Jun-19 17:09 297 6 gusting 8 13.9
2019-Jun-19 17:03 305 7 gusting 13 13.9
2019-Jun-19 16:59 304 8 gusting 13 13.3
2019-Jun-19 16:53 301 8 gusting 15 13.9
2019-Jun-19 16:49 293 6 gusting 15 13.9
2019-Jun-19 16:43 283 6 gusting 15 14.4
2019-Jun-19 16:39 283 6 gusting 12 14.4
2019-Jun-19 16:33 282 6 gusting 12 14.4
2019-Jun-19 16:29 278 6 gusting 11 14.4
2019-Jun-19 16:23 280 9 gusting 12 14.4
2019-Jun-19 16:19 284 11 gusting 15 14.4
2019-Jun-19 16:13 285 11 gusting 20 15.0
2019-Jun-19 16:09 280 9 gusting 20 15.6
2019-Jun-19 16:03 263 7 gusting 19 16.1
2019-Jun-19 15:59 262 6 gusting 19 16.7
2019-Jun-19 15:53 263 6 gusting 16 16.7
2019-Jun-19 15:49 268 6 gusting 11 16.7
2019-Jun-19 15:43 276 8 gusting 12 16.7
2019-Jun-19 15:39 276 8 gusting 16 17.2
2019-Jun-19 15:33 282 7 gusting 16 17.8
2019-Jun-19 15:29 293 6 gusting 13 17.8
2019-Jun-19 15:23 294 6 gusting 13 17.2
2019-Jun-19 15:19 282 6 gusting 11 17.2
2019-Jun-19 15:13 285 6 gusting 12 17.2
2019-Jun-19 15:09 291 6 gusting 12 16.7
2019-Jun-19 15:03 290 7 gusting 11 16.7
2019-Jun-19 14:59 291 7 gusting 13 16.7
2019-Jun-19 14:53 285 6 gusting 13 16.7
2019-Jun-19 14:49 274 5 gusting 11 16.7
2019-Jun-19 14:43 254 4 gusting 9 16.1
2019-Jun-19 14:39 250 5 gusting 7 16.1
2019-Jun-19 14:33 259 5 gusting 9 15.6
2019-Jun-19 14:29 263 5 gusting 9 15.6
2019-Jun-19 14:23 263 4 gusting 8 15.6
2019-Jun-19 14:19 275 5 gusting 8 15.6
2019-Jun-19 14:13 307 6 gusting 10 15.6
2019-Jun-19 14:09 300 6 gusting 11 15.6
2019-Jun-19 14:03 286 6 gusting 11 16.1
2019-Jun-19 13:59 281 6 gusting 11 16.7
2019-Jun-19 13:53 284 7 gusting 12 16.7
2019-Jun-19 13:49 285 6 gusting 12 16.1
2019-Jun-19 13:43 282 5 gusting 12 16.1
2019-Jun-19 13:39 278 4 gusting 10 16.1
2019-Jun-19 13:33 260 4 gusting 7 15.6
2019-Jun-19 13:29 253 4 gusting 8 15.0
2019-Jun-19 13:23 255 5 gusting 8 14.4
2019-Jun-19 13:19 255 5 gusting 8 14.4
2019-Jun-19 13:13 253 4 gusting 8 13.9
2019-Jun-19 13:09 260 5 gusting 8 13.9
2019-Jun-19 13:03 288 6 gusting 9 13.9
2019-Jun-19 12:59 292 6 gusting 9 13.3
2019-Jun-19 12:53 297 7 gusting 11 13.3
2019-Jun-19 12:49 300 7 gusting 11 13.3
2019-Jun-19 12:43 298 9 gusting 11 13.3
2019-Jun-19 12:39 300 10 gusting 17 13.3
2019-Jun-19 12:33 305 11 gusting 18 13.9
2019-Jun-19 12:29 304 10 gusting 18 13.9
2019-Jun-19 12:23 293 8 gusting 18 15.6
2019-Jun-19 12:19 282 7 gusting 17 16.7
2019-Jun-19 12:13 279 7 gusting 13 16.7
2019-Jun-19 12:09 287 6 gusting 13 16.7
2019-Jun-19 12:03 285 6 gusting 12 16.7
2019-Jun-19 11:59 273 6 gusting 11 16.7
2019-Jun-19 11:53 274 6 gusting 12 16.7
2019-Jun-19 11:49 284 6 gusting 12 16.1
2019-Jun-19 11:43 294 6 gusting 12 16.1
2019-Jun-19 11:39 286 6 gusting 12 16.1
2019-Jun-19 11:33 277 6 gusting 10 16.7
2019-Jun-19 11:29 282 6 gusting 10 16.7
2019-Jun-19 11:23 282 7 gusting 11 16.7
2019-Jun-19 11:19 290 7 gusting 13 16.1
2019-Jun-19 11:13 298 6 gusting 13 16.1
2019-Jun-19 11:09 301 6 gusting 12 16.1
2019-Jun-19 11:03 292 6 gusting 8 16.1
2019-Jun-19 10:59 278 6 gusting 12 15.6
2019-Jun-19 10:53 276 6 gusting 12 15.6
2019-Jun-19 10:49 291 6 gusting 10 15.6
2019-Jun-19 10:43 298 6 gusting 9 15.0
2019-Jun-19 10:39 293 6 gusting 10 14.4
2019-Jun-19 10:33 292 6 gusting 10 14.4
2019-Jun-19 10:29 290 6 gusting 10 14.4
2019-Jun-19 10:23 295 7 gusting 10 14.4
2019-Jun-19 10:19 295 7 gusting 12 14.4
2019-Jun-19 10:13 295 6 gusting 13 14.4
2019-Jun-19 10:09 292 6 gusting 13 14.4
2019-Jun-19 10:03 287 6 gusting 12 14.4
2019-Jun-19 09:59 290 6 gusting 9 14.4
2019-Jun-19 09:53 289 6 gusting 10 15.0
2019-Jun-19 09:49 284 5 gusting 10 15.0
2019-Jun-19 09:43 296 5 gusting 8 15.0
2019-Jun-19 09:39 317 6 gusting 10 15.0
2019-Jun-19 09:33 310 6 gusting 10 15.0
2019-Jun-19 09:29 298 5 gusting 10 15.0
2019-Jun-19 09:23 270 4 gusting 9 15.0
2019-Jun-19 09:19 249 4 gusting 9 15.0
2019-Jun-19 09:13 270 4 gusting 8 15.0
2019-Jun-19 09:09 287 4 gusting 8 15.0
2019-Jun-19 09:03 278 5 gusting 10 15.0
2019-Jun-19 08:59 278 5 gusting 10 14.4
2019-Jun-19 08:53 287 5 gusting 10 14.4
2019-Jun-19 08:49 288 4 gusting 11 14.4
2019-Jun-19 08:43 294 4 gusting 11 14.4
2019-Jun-19 08:39 295 4 gusting 9 14.4
2019-Jun-19 08:33 286 4 gusting 9 14.4
2019-Jun-19 08:29 282 4 gusting 8 13.9
2019-Jun-19 08:23 284 4 gusting 8 13.9
2019-Jun-19 08:19 285 3 gusting 6 13.9
2019-Jun-19 08:13 272 4 gusting 6 13.9
2019-Jun-19 08:09 272 4 gusting 6 13.3
2019-Jun-19 08:03 281 3 gusting 7 13.3
2019-Jun-19 07:59 284 3 gusting 7 13.3
2019-Jun-19 07:53 270 3 gusting 6 13.3
2019-Jun-19 07:49 254 3 gusting 6 13.3
2019-Jun-19 07:43 277 3 gusting 6 13.3
2019-Jun-19 07:39 293 3 gusting 6 13.3
2019-Jun-19 07:33 288 2 gusting 6 12.8
2019-Jun-19 07:29 278 2 gusting 6 12.8
2019-Jun-19 07:23 272 3 gusting 6 12.2
2019-Jun-19 07:19 276 2 gusting 6 12.2
2019-Jun-19 07:13 284 1 gusting 5 12.2
2019-Jun-19 07:09 278 0 gusting 5 11.7
2019-Jun-19 07:03 247 1 gusting 5 11.7
2019-Jun-19 06:59 229 1 gusting 3 11.7
2019-Jun-19 06:53 226 0 gusting 3 11.7
2019-Jun-19 06:49 240 0 gusting 3 11.7
2019-Jun-19 06:43 025 0 gusting 3 12.2
2019-Jun-19 06:39 027 1 gusting 3 11.7
2019-Jun-19 06:33 030 1 gusting 2 11.7
2019-Jun-19 06:29 026 1 gusting 3 11.7
2019-Jun-19 06:23 008 0 gusting 3 11.1
2019-Jun-19 06:19 346 0 gusting 2 10.6
2019-Jun-19 06:13 315 0 gusting 2 10.0
2019-Jun-19 06:09 313 0 gusting 3 10.0
2019-Jun-19 06:03 313 0 gusting 3 9.4
2019-Jun-19 05:59 313 0 gusting 2 9.4
2019-Jun-19 05:53 312 0 gusting 3 10.0
2019-Jun-19 05:49 298 0 gusting 3 10.0
2019-Jun-19 05:43 267 0 gusting 3 10.0
2019-Jun-19 05:39 241 0 gusting 1 10.0
2019-Jun-19 05:33 241 0 gusting 1 10.0
2019-Jun-19 05:29 241 0 gusting 1 9.4
2019-Jun-19 05:23 241 0 gusting 1 9.4
2019-Jun-19 05:19 240 0 gusting 1 8.9
2019-Jun-19 05:13 234 0 gusting 2 8.9
2019-Jun-19 05:09 253 0 gusting 4 8.9
2019-Jun-19 05:03 285 0 gusting 4 8.9
2019-Jun-19 04:59 284 0 gusting 1 8.9
2019-Jun-19 04:53 279 1 gusting 2 9.4
2019-Jun-19 04:49 279 1 gusting 3 9.4
2019-Jun-19 04:43 280 1 gusting 3 9.4
2019-Jun-19 04:39 277 1 gusting 3 9.4
2019-Jun-19 04:33 268 1 gusting 4 9.4
2019-Jun-19 04:29 270 1 gusting 4 9.4
2019-Jun-19 04:23 277 2 gusting 5 9.4
2019-Jun-19 04:19 275 2 gusting 5 9.4
2019-Jun-19 04:13 270 2 gusting 4 9.4
2019-Jun-19 04:09 272 2 gusting 5 9.4
2019-Jun-19 04:03 276 3 gusting 5 10.0
2019-Jun-19 03:59 280 2 gusting 5 10.0
2019-Jun-19 03:53 283 2 gusting 5 10.0
2019-Jun-19 03:49 280 1 gusting 5 10.0
2019-Jun-19 03:43 277 1 gusting 4 10.0
2019-Jun-19 03:39 277 2 gusting 3 10.0
2019-Jun-19 03:33 282 2 gusting 5 10.0
2019-Jun-19 03:29 281 2 gusting 5 10.0
2019-Jun-19 03:23 281 1 gusting 4 10.6
2019-Jun-19 03:19 295 1 gusting 4 10.6
2019-Jun-19 03:13 327 1 gusting 3 10.6
2019-Jun-19 03:09 328 1 gusting 3 10.6
2019-Jun-19 03:03 328 2 gusting 4 10.6
2019-Jun-19 02:59 321 2 gusting 4 10.6
2019-Jun-19 02:53 306 3 gusting 4 10.6
2019-Jun-19 02:49 295 3 gusting 5 10.6
2019-Jun-19 02:43 294 3 gusting 5 10.6
2019-Jun-19 02:39 296 4 gusting 5 10.6
2019-Jun-19 02:33 297 4 gusting 6 10.6
2019-Jun-19 02:29 299 3 gusting 6 10.6
2019-Jun-19 02:23 303 3 gusting 6 10.6
2019-Jun-19 02:19 303 3 gusting 5 10.6
2019-Jun-19 02:13 301 3 gusting 4 10.6
2019-Jun-19 02:09 300 4 gusting 6 10.6
2019-Jun-19 02:03 294 4 gusting 6 10.6
2019-Jun-19 01:59 292 4 gusting 6 10.6
2019-Jun-19 01:53 302 2 gusting 6 10.6
2019-Jun-19 01:49 316 2 gusting 5 10.6
2019-Jun-19 01:43 312 3 gusting 5 10.6
2019-Jun-19 01:39 305 3 gusting 5 11.1
2019-Jun-19 01:33 306 3 gusting 4 11.1
2019-Jun-19 01:29 311 3 gusting 4 11.1
2019-Jun-19 01:23 312 4 gusting 6 11.1
2019-Jun-19 01:19 313 4 gusting 6 11.1
2019-Jun-19 01:13 315 5 gusting 6 11.1
2019-Jun-19 01:09 312 5 gusting 6 11.1
2019-Jun-19 01:03 304 4 gusting 6 11.1
2019-Jun-19 00:59 303 3 gusting 6 11.1
2019-Jun-19 00:53 310 2 gusting 6 11.1
2019-Jun-19 00:49 314 2 gusting 4 11.1
2019-Jun-19 00:43 308 1 gusting 4 11.1
2019-Jun-19 00:39 300 1 gusting 4 11.1
2019-Jun-19 00:33 292 2 gusting 4 11.1
2019-Jun-19 00:29 289 3 gusting 4 11.7
2019-Jun-19 00:23 286 4 gusting 5 11.7
2019-Jun-19 00:19 285 3 gusting 6 11.7
2019-Jun-19 00:13 290 1 gusting 6 11.7
2019-Jun-19 00:09 299 1 gusting 4 11.7
2019-Jun-19 00:03 303 2 gusting 4 11.7
2019-Jun-18 23:59 303 1 gusting 4 11.7
2019-Jun-18 23:53 303 1 gusting 3 12.2
2019-Jun-18 23:49 303 1 gusting 3 12.2
2019-Jun-18 23:43 305 2 gusting 3 12.2
2019-Jun-18 23:39 309 2 gusting 3 12.2
2019-Jun-18 23:33 320 3 gusting 4 12.2
2019-Jun-18 23:29 325 4 gusting 6 12.2
2019-Jun-18 23:23 322 5 gusting 6 12.2
2019-Jun-18 23:19 316 5 gusting 6 12.2
2019-Jun-18 23:13 309 5 gusting 6 12.2
2019-Jun-18 23:09 302 5 gusting 6 12.8
2019-Jun-18 23:03 290 4 gusting 6 12.8
2019-Jun-18 22:59 289 4 gusting 6 12.8
2019-Jun-18 22:53 296 2 gusting 6 12.8
2019-Jun-18 22:49 296 2 gusting 6 13.3
2019-Jun-18 22:43 275 1 gusting 5 13.3
2019-Jun-18 22:39 269 1 gusting 5 13.3
2019-Jun-18 22:33 279 2 gusting 4 13.3
2019-Jun-18 22:29 293 2 gusting 3 13.3
2019-Jun-18 22:23 294 1 gusting 4 13.3
2019-Jun-18 22:19 280 1 gusting 4 13.3
2019-Jun-18 22:13 258 2 gusting 4 13.3
2019-Jun-18 22:09 256 2 gusting 4 13.3
2019-Jun-18 22:03 253 3 gusting 6 13.3
2019-Jun-18 21:59 255 3 gusting 6 13.9
2019-Jun-18 21:53 274 4 gusting 6 13.9
2019-Jun-18 21:49 283 4 gusting 6 14.4
2019-Jun-18 21:43 289 3 gusting 6 14.4
2019-Jun-18 21:13 292 3 gusting 4 15.0
2019-Jun-18 21:09 272 3 gusting 6 15.0
2019-Jun-18 21:03 259 3 gusting 6 15.0
2019-Jun-18 20:59 258 4 gusting 6 15.0
2019-Jun-18 20:53 254 4 gusting 6 15.0
2019-Jun-18 20:49 257 4 gusting 6 15.0
2019-Jun-18 20:43 264 3 gusting 6 15.0
2019-Jun-18 20:39 261 3 gusting 6 15.0
2019-Jun-18 20:33 253 3 gusting 6 15.0
2019-Jun-18 20:29 252 3 gusting 6 15.6
2019-Jun-18 20:23 245 3 gusting 6 15.6
2019-Jun-18 20:19 244 3 gusting 6 15.6
2019-Jun-18 20:13 244 2 gusting 6 15.6
2019-Jun-18 20:09 243 2 gusting 6 15.6
2019-Jun-18 20:03 242 2 gusting 5 15.6
2019-Jun-18 19:59 243 2 gusting 5 15.6
2019-Jun-18 19:53 241 2 gusting 5 16.1
2019-Jun-18 19:49 239 3 gusting 4 16.1
2019-Jun-18 19:43 232 4 gusting 6 16.1
2019-Jun-18 19:39 229 4 gusting 6 16.1
2019-Jun-18 19:33 231 3 gusting 6 16.1
2019-Jun-18 19:29 227 3 gusting 6 16.1
2019-Jun-18 19:23 226 4 gusting 6 16.1
2019-Jun-18 19:19 228 4 gusting 6 16.1
2019-Jun-18 19:13 224 5 gusting 7 16.7
2019-Jun-18 19:09 226 5 gusting 7 16.7
2019-Jun-18 19:03 232 5 gusting 7 16.7
2019-Jun-18 18:59 237 5 gusting 7 17.2
2019-Jun-18 18:53 238 4 gusting 7 17.2
2019-Jun-18 18:49 231 4 gusting 7 17.2
2019-Jun-18 18:43 235 2 gusting 7 17.8
2019-Jun-18 18:39 246 2 gusting 6 17.8
2019-Jun-18 18:33 252 2 gusting 5 17.8
2019-Jun-18 18:29 258 3 gusting 6 17.2
2019-Jun-18 18:23 252 3 gusting 6 17.2
2019-Jun-18 18:19 256 4 gusting 6 17.2
2019-Jun-18 18:13 256 3 gusting 6 17.2
2019-Jun-18 18:09 255 2 gusting 6 17.2
2019-Jun-18 18:03 244 2 gusting 5 17.2
2019-Jun-18 17:59 237 3 gusting 4 17.8
2019-Jun-18 17:53 265 3 gusting 6 17.8
2019-Jun-18 17:49 284 3 gusting 7 17.8
2019-Jun-18 17:43 294 3 gusting 7 17.8
2019-Jun-18 17:39 282 2 gusting 6 17.8
2019-Jun-18 17:33 273 3 gusting 6 17.8
2019-Jun-18 17:29 292 3 gusting 6 18.3
2019-Jun-18 17:23 278 4 gusting 6 18.3
2019-Jun-18 17:19 265 4 gusting 6 18.9
2019-Jun-18 17:13 276 3 gusting 6 18.9
2019-Jun-18 17:09 258 3 gusting 6 18.3
2019-Jun-18 17:03 232 3 gusting 6 18.3